Regional Weather Roundup
Issued by NWS

Home | Current Version | Previous Version | Graphics & Text | Print | Product List | Glossary On
Versions: 1 2 3 4 5 6 7 8 9 10 11 12 13 14 15 16 17 18 19 20 21 22 23 24 25 26 27 28 29 30 31 32 33 34 35 36 37 38 39 40 41 42 43 44 45 46 47 48 49 50
000
ASUS43 KOAX 241002
RWRNE

WEATHER ROUNDUP FOR NEBRASKA
NATIONAL WEATHER SERVICE OMAHA NE
500 AM CDT SUN JUL 24 2016

NOTES: SATELLITE DATA IS BEING USED TO AUGMENT CLOUD COVER ABOVE
       12000 FEET.
       "FAIR" INDICATES FEW OR NO CLOUDS BELOW 12,000 FEET WITH NO
       SIGNIFICANT WEATHER AND/OR OBSTRUCTIONS TO VISIBILITY.

  * THESE STATIONS DO NOT REPORT WEATHER SUCH AS RAIN...SNOW OR FOG.

NEZ001>004-019>022-054>056-241100-
NEBRASKA PANHANDLE

CITY           SKY/WX    TMP DP  RH WIND       PRES   REMARKS
SCOTTSBLUFF    CLOUDY    65  58  78 E6        30.06F
ALLIANCE       CLEAR     60  56  86 N3        30.06F
CHADRON        PTCLDY    59  51  75 CALM      30.07S
SIDNEY         CLEAR     61  54  77 N3        30.11R
$$

NEZ057>060-069>072-079>082-241100-
SOUTHWEST NEBRASKA

CITY           SKY/WX    TMP DP  RH WIND       PRES   REMARKS
NORTH PLATTE   CLOUDY    70  58  65 N3        29.99S
IMPERIAL       CLOUDY    72  57  59 NE15      29.99F
LEXINGTON      PTCLDY    69  61  76 NE7       29.95S
MCCOOK         CLOUDY    70  62  76 N5        29.97S
OGALLALA       MOCLDY    74  55  49 E10       30.00F
$$

NEZ005>010-023>029-035>040-094-241100-
NORTH CENTRAL NEBRASKA

CITY           SKY/WX    TMP DP  RH WIND       PRES   REMARKS
VALENTINE      CLOUDY    63  59  87 NW7       30.02S
AINSWORTH      CLOUDY    66  60  80 NW6       30.03R
BROKEN BOW     MOCLDY    65  61  87 N8        29.98S
O`NEILL        PTCLDY    67  63  86 N3        29.95F
ORD            PTCLDY    68  62  81 N8        29.94S
THEDFORD       CLOUDY    67  59  77 CALM      30.02F
$$

NEZ041-046>049-061>064-073>077-083>087-241100-
SOUTH CENTRAL NEBRASKA

CITY           SKY/WX    TMP DP  RH WIND       PRES   REMARKS
GRAND ISLAND   CLEAR     70  68  93 NE7       29.92S
AURORA         PTCLDY    72  70  93 NE5       29.92R
HASTINGS       CLEAR     73  69  87 NE9       29.92S
HEBRON         CLOUDY    73  69  87 CALM      29.89R
HOLDREGE       PTCLDY    69  65  86 NE6       29.94R
KEARNEY *      CLEAR     70  63  78 NE6       29.95R
$$

NEZ011>018-030>034-042>045-241100-
NORTHEAST NEBRASKA

CITY           SKY/WX    TMP DP  RH WIND       PRES   REMARKS
NORFOLK        CLEAR     70  63  78 N7        29.92S
ALBION         CLEAR     68  62  81 N5        29.93S
BLAIR          CLEAR     79  74  85 N14G22    29.85S
FREMONT        CLEAR     76  69  79 N6        29.87S
TEKAMAH        CLEAR     77  72  84 N14       29.86R
WAYNE          CLEAR     69  66  90 N3        29.92R
$$

NEZ050>053-065>068-078-088>093-241100-
SOUTHEAST NEBRASKA

CITY           SKY/WX    TMP DP  RH WIND       PRES   REMARKS
LINCOLN        CLEAR     77  73  87 N5        29.89R
OMAHA EPPLEY   PTCLDY    79  73  82 NW8       29.83S
BEATRICE       CLOUDY    74  69  84 NW8       29.88R
FALLS CITY     CLOUDY    85  69  58 W12       29.82S
NEBRASKA CITY  CLEAR     75  71  86 W6        29.85S
PLATTSMOUTH    CLEAR     76  73  90 W6        29.85S
$$

NEZ044-045-051>053-067-241100-
OMAHA AREA

CITY           SKY/WX    TMP DP  RH WIND       PRES   REMARKS
OMAHA EPPLEY   PTCLDY    79  73  82 NW8       29.83S
BLAIR          CLEAR     79  74  85 N14G22    29.85S
FREMONT        CLEAR     76  69  79 N6        29.87S
MILLARD        CLEAR     80  75  83 NW8       29.85R
OFFUTT AFB     CLEAR     75  74  97 NW5       29.83S
PLATTSMOUTH    CLEAR     76  73  90 W6        29.85S
WAHOO          FAIR      77  70  80 N9        29.87R
$$




USA.gov is the U.S. government's official web portal to all federal, state and local government web resources and services.